Temperature
13 13 13 13 13 13 13 13 13 12 12 12 12 12 11 12 11 12 11 11 11 12 13 13 14 14 14 14 13 13 13 13 13 13 13 13 13 13 14 14 14 14 15
13 13 12 12 12 12 12 12 12 12 12 12 12 11 11 11 11 11 11 11 11 11 12 12 13 13 13 13 13 13 13 13 13 13 13 12 12 12 12 13 13 13 13
12 12 12 12 12 12 12 12 12 12 12 12 12 11 11 11 11 11 11 11 11 11 11 11 12 12 13 13 13 13 13 13 13 13 13 12 12 12 12 12 12 12 12
11 11 11 11 11 11 11 11 11 11 12 12 11 11 11 11 11 11 10 10 10 10 11 11 11 11 12 13 13 13 13 13 13 13 12 12 12 12 12 12 12 12 12
9 9 9 10 10 10 10 10 11 11 11 11 11 11 11 11 11 11 10 10 10 10 10 10 10 11 11 12 12 13 13 13 13 12 12 12 12 12 12 12 12 11 11
7 7 7 7 8 8 9 9 10 10 10 11 11 11 11 11 11 10 10 10 10 10 10 10 10 10 11 11 12 13 13 13 13 13 12 12 12 12 12 12 12 11 11
5 5 5 6 6 6 7 7 8 9 9 10 10 11 11 10 10 10 10 10 10 10 10 10 10 10 11 11 12 12 13 13 13 13 13 12 12 12 12 12 11 11 12
4 4 4 4 4 4 5 5 6 6 7 8 9 10 10 10 10 10 10 10 10 10 10 10 10 10 10 11 12 12 13 13 13 13 13 13 12 12 12 12 11 11 11
4 4 4 4 4 3 3 4 4 5 6 7 8 9 9 9 9 9 9 9 10 10 10 10 10 10 10 10 11 11 12 12 12 12 12 12 12 12 12 11 11 10 9
3 4 4 3 3 3 3 3 3 4 4 5 6 7 8 8 8 9 9 9 9 10 10 10 10 10 10 10 10 11 11 12 12 12 12 12 12 12 12 12 11 11 10
4 4 4 3 3 3 3 3 3 3 4 4 5 6 6 7 7 8 8 8 9 9 9 10 10 10 9 10 10 10 11 12 12 12 11 11 11 11 11 11 11 11 11
4 4 4 3 3 3 3 3 3 3 3 4 4 5 5 6 6 7 7 7 8 8 9 9 9 9 9 10 10 10 10 10 11 11 11 11 11 10 10 10 10 10 11
4 4 4 3 3 3 3 3 3 3 3 4 4 4 5 5 6 6 6 7 7 8 8 9 9 9 9 9 10 10 10 10 10 11 10 10 10 10 10 10 10 10 10
4 4 4 3 3 3 3 3 3 3 3 3 4 4 4 5 5 5 6 6 7 7 8 8 8 8 8 9 9 9 10 10 11 11 11 10 10 10 10 10 10 10 10
4 4 4 4 4 4 3 3 3 4 4 4 4 4 4 4 5 5 6 6 7 7 8 8 8 8 8 8 9 9 9 10 10 10 11 10 10 10 10 10 10 10 10
5 4 4 4 4 4 4 4 4 4 4 4 4 4 4 4 5 5 6 6 7 7 7 8 8 8 8 8 8 8 9 9 10 11 11 11 10 10 10 10 10 10 10
5 5 5 4 4 4 4 4 4 4 4 4 5 5 5 5 5 6 6 7 7 7 7 7 7 7 7 7 8 8 9 9 10 11 11 11 11 10 10 10 10 10 11
6 5 5 5 4 4 4 4 5 5 5 5 5 5 5 6 6 7 7 7 7 7 7 7 7 7 7 7 7 8 8 9 10 10 11 11 11 11 11 11 11 11 11
6 6 6 5 5 5 5 5 5 5 5 5 5 5 6 6 6 7 7 7 7 7 6 6 6 6 7 7 7 8 8 9 10 10 11 11 11 11 11 11 11 11 10
6 6 6 6 6 5 5 5 5 5 5 5 5 5 6 6 6 6 6 6 6 6 6 6 6 6 7 7 7 8 8 9 9 10 10 11 11 11 11 10 10 10 10
6 6 6 6 6 6 6 6 6 6 6 6 6 6 6 6 6 6 6 6 6 6 6 6 6 6 7 7 7 8 8 9 10 10 10 11 11 10 10 10 10 9 9
7 6 6 6 6 6 6 6 6 6 6 6 6 6 6 6 6 6 6 6 6 6 6 6 6 6 7 7 8 8 9 9 10 10 10 11 11 10 10 10 9 9 9
7 7 7 6 6 6 7 7 7 6 6 6 6 6 6 6 6 6 6 6 6 6 6 6 6 7 7 8 8 9 9 10 10 11 11 11 10 10 10 10 10 9 9
7 7 7 7 6 6 7 7 7 6 6 6 6 6 6 6 6 6 6 6 6 6 7 7 7 7 8 8 9 9 10 11 11 11 11 11 10 10 10 10 10 10 10
7 7 7 7 6 6 6 7 7 6 6 6 6 6 6 6 7 7 7 7 7 7 8 8 8 9 9 9 10 10 10 11 11 11 11 10 10 10 10 10 10 10 10
7 7 7 7 6 6 6 6 6 6 7 6 6 6 7 7 7 7 8 8 9 9 9 10 10 10 10 10 10 11 11 11 11 11 10 10 10 10 10 10 10 10 10
Wind_Speed
12 12 11 12 11 9 9 11 11 10 9 8 7 6 6 5 5 5 5 6 7 7 7 8 10 8 7 6 6 6 7 7 7 4 2 2 2 3 3 5 7 8 11
12 12 12 12 12 11 11 13 12 12 11 10 8 7 7 7 6 7 7 6 6 6 6 8 10 8 9 7 7 7 7 8 7 7 2 3 3 4 5 6 5 8 10
12 12 12 12 13 13 13 13 12 12 12 10 9 10 9 9 8 8 7 7 8 7 6 7 8 8 9 8 8 8 7 7 7 6 4 3 2 3 5 6 8 8 10
12 12 12 13 14 13 13 12 12 12 12 11 11 11 10 9 9 9 8 8 8 8 8 7 7 8 9 8 8 9 8 7 7 6 6 5 3 4 6 6 7 6 7
12 13 14 14 13 13 12 12 12 11 12 12 11 11 10 9 10 10 9 9 8 8 8 8 8 10 10 9 8 8 9 8 7 7 7 6 5 6 7 5 8 9 7
11 13 13 13 13 12 12 12 11 11 11 11 12 12 11 10 13 15 11 8 8 7 7 7 7 9 11 13 14 13 12 11 11 9 8 9 9 7 7 10 11 9 5
12 13 13 12 13 12 13 12 12 11 10 11 12 12 12 13 14 14 14 9 8 8 8 7 6 7 9 9 10 13 15 16 14 11 10 11 10 11 12 13 11 6 6
15 15 14 13 14 13 13 13 12 10 9 9 10 11 10 11 14 14 12 9 8 8 9 9 8 9 8 9 8 8 9 11 13 12 11 10 10 13 15 12 12 11 11
16 16 16 15 15 14 14 14 12 10 9 8 7 8 9 9 11 12 8 5 6 8 9 9 9 9 11 11 9 9 9 8 9 11 11 10 14 18 18 15 16 15 12
16 16 16 15 15 15 14 14 12 11 10 8 7 6 6 7 9 10 7 4 5 6 7 8 11 11 11 11 10 11 11 9 7 7 7 11 15 20 22 19 17 17 15
16 17 16 15 14 14 13 13 12 11 10 9 7 6 6 8 9 11 9 5 6 7 7 7 7 10 12 12 13 11 11 10 10 9 9 11 13 14 13 12 12 16 15
16 16 15 14 13 12 11 11 10 9 9 8 7 7 7 7 9 10 12 12 10 8 8 7 7 9 10 11 11 11 14 13 9 9 10 11 12 13 12 11 10 8 6
16 15 14 13 11 10 10 10 8 6 6 6 6 7 7 6 8 12 13 14 14 10 8 9 8 8 7 7 10 13 15 11 10 11 11 11 10 12 12 11 11 10 9
15 14 12 11 10 9 8 6 6 5 5 5 6 7 7 6 6 7 7 8 9 10 8 7 8 6 5 4 6 10 11 11 12 11 11 10 10 11 11 10 10 10 9
13 12 11 10 9 8 7 6 6 6 6 6 6 6 6 7 8 10 7 7 7 9 9 6 5 4 4 3 4 7 8 10 10 9 11 12 11 10 9 8 8 9 8
12 10 9 8 8 7 7 7 7 8 9 11 12 9 7 9 9 9 10 11 11 13 9 7 7 6 6 5 5 6 7 9 10 11 12 12 12 11 9 7 8 10 10
12 10 7 7 7 7 7 7 7 5 3 2 4 7 10 9 8 7 9 11 12 13 7 7 7 7 6 5 5 5 6 9 10 12 12 12 12 11 11 10 10 10 9
12 10 8 6 5 6 6 6 6 5 4 2 4 6 1 1 2 6 11 11 8 7 5 6 6 6 6 6 6 6 7 9 10 11 12 12 12 11 11 11 10 10 9
11 8 7 5 5 4 5 5 5 4 3 1 2 5 7 8 8 9 7 5 7 7 5 5 5 6 6 6 6 7 8 10 11 11 12 12 12 11 10 9 9 12 9
8 12 10 5 5 4 4 4 5 4 3 2 2 2 2 3 3 3 2 3 4 5 5 5 5 6 6 7 7 8 9 10 12 11 11 11 11 11 11 11 10 10 8
7 8 10 7 4 4 3 4 4 4 3 2 2 2 2 2 3 3 2 2 3 4 5 5 5 6 6 6 7 9 11 11 11 11 11 11 11 10 10 10 10 9 9
6 5 4 5 4 4 3 3 3 2 2 2 2 2 2 1 2 3 2 2 3 3 3 4 4 5 6 7 8 9 10 11 11 11 11 11 11 11 10 10 9 9 9
7 5 4 3 3 4 4 3 3 2 2 2 2 2 1 1 2 2 1 1 2 2 3 3 4 5 6 7 8 9 10 11 12 13 12 12 11 11 10 10 11 11 10
9 5 3 3 2 2 3 3 3 3 3 3 2 1 1 1 1 1 0 0 0 1 2 3 4 6 9 8 7 8 8 10 12 13 16 14 12 10 10 10 10 12 11
10 7 4 2 1 1 1 2 3 3 3 3 2 2 1 2 2 1 2 2 2 1 1 1 3 6 10 12 10 8 11 13 12 12 12 12 13 12 11 11 9 10 9
10 9 6 3 1 0 0 1 2 2 2 2 2 3 2 2 3 2 2 3 3 3 2 3 6 9 11 10 11 13 13 13 14 14 11 11 12 11 11 9 11 10 10
Wind_Direction
273 273 274 274 268 252 245 249 250 249 243 238 238 242 251 250 232 220 235 274 259 243 227 221 225 218 216 216 210 205 208 213 243 259 254 267 226 156 106 87 85 86 88
264 264 265 268 271 266 257 252 247 245 245 236 227 228 238 243 234 226 225 230 251 259 251 236 237 229 224 223 218 215 211 209 223 252 253 248 228 170 132 106 87 87 89
271 266 265 266 265 265 264 259 250 243 242 236 224 224 231 236 237 234 230 228 231 238 242 245 246 233 231 227 222 221 215 207 211 229 246 244 226 154 132 108 97 91 86
288 283 277 273 269 267 267 264 257 246 238 234 227 226 229 231 234 236 231 233 234 235 228 226 238 238 235 233 227 223 211 204 206 222 237 238 220 156 146 135 117 97 90
297 293 288 283 280 278 275 270 264 252 244 235 229 229 230 228 232 229 226 227 229 236 231 222 224 234 238 239 232 222 206 204 205 216 227 223 204 173 161 139 129 114 92
303 298 294 290 288 283 281 279 273 264 252 238 230 227 225 226 230 225 218 218 218 225 235 235 234 241 245 244 240 226 207 203 205 209 219 219 204 172 153 147 141 136 123
304 302 299 297 295 293 293 290 283 275 262 246 237 227 222 225 227 230 226 220 221 222 226 233 248 251 249 255 251 234 218 208 200 202 214 216 196 171 158 159 159 144 130
309 306 305 304 302 300 297 291 284 279 270 255 242 229 221 224 221 226 228 223 228 233 229 226 233 253 260 258 254 235 219 212 210 213 221 216 194 174 164 154 141 117 106
308 305 303 299 296 294 291 288 285 279 270 259 248 228 218 225 220 223 220 207 230 244 241 231 227 243 258 253 242 224 211 210 210 214 215 202 172 156 147 140 139 134 133
306 301 297 292 289 288 285 283 279 274 268 261 250 230 221 231 231 228 216 198 232 250 251 239 229 235 253 250 232 216 206 197 184 182 180 164 158 153 152 153 150 146 142
304 300 295 289 285 283 280 278 275 270 264 256 247 239 231 235 242 241 228 204 223 243 250 244 234 230 246 246 227 218 204 180 176 170 160 154 152 154 153 148 148 151 151
306 304 300 293 288 288 283 282 275 268 256 245 239 242 240 237 237 241 235 227 220 231 241 240 233 229 245 246 228 211 181 169 166 162 157 155 154 154 151 144 131 119 132
313 313 310 305 296 288 285 285 278 263 250 236 232 240 245 238 236 234 235 236 230 226 233 226 218 224 244 243 221 194 174 172 167 163 160 155 150 147 142 132 120 107 107
320 323 322 319 314 303 294 286 277 266 254 240 232 233 238 239 239 236 233 235 230 220 217 203 198 214 227 214 188 187 185 178 170 163 154 144 140 143 145 143 142 135 124
325 329 331 329 324 317 309 294 278 262 252 248 242 230 230 239 238 225 217 215 206 197 180 174 181 188 201 192 183 187 185 173 163 150 150 150 150 150 148 147 146 150 148
328 331 331 331 331 326 322 317 289 270 269 254 246 239 235 239 249 242 224 210 194 175 170 180 189 194 195 184 184 185 178 169 162 155 155 156 159 160 155 154 158 165 165
324 323 320 324 327 327 326 323 322 321 328 333 291 244 234 247 255 241 201 180 174 169 179 187 194 195 193 185 180 183 175 165 160 157 155 155 155 157 159 162 167 169 168
318 316 316 307 313 318 319 317 316 318 325 1 36 38 69 187 164 149 147 146 159 176 187 190 197 196 191 184 177 178 166 158 155 152 151 152 152 153 156 161 167 168 161
311 309 304 300 304 309 314 317 324 333 343 41 64 52 62 78 91 115 131 145 161 176 188 198 202 198 194 182 173 169 166 159 152 149 149 148 150 150 151 154 154 151 151
298 307 318 311 312 321 330 333 340 351 8 46 73 77 73 81 104 115 112 144 166 180 192 199 199 192 185 177 167 165 163 155 151 149 148 148 149 149 149 148 150 155 158
291 297 315 321 317 315 323 332 339 349 11 51 64 94 110 114 135 153 163 175 186 188 187 185 180 174 169 164 161 159 157 154 153 153 153 152 151 149 149 150 153 153 147
294 282 294 308 316 318 320 324 332 349 31 70 82 111 153 142 161 176 193 206 202 193 185 174 165 167 166 162 157 154 154 153 154 154 155 155 153 151 150 151 151 151 151
315 295 289 299 312 328 347 3 7 14 43 85 112 133 165 174 184 190 198 191 182 189 194 186 173 166 163 162 158 158 160 161 161 157 153 153 154 154 155 158 158 158 163
331 323 306 298 310 348 8 21 27 31 43 69 101 126 147 152 163 154 119 305 250 222 202 191 182 173 163 160 162 165 164 157 155 156 152 153 156 157 160 165 170 176 178
342 342 331 309 291 317 20 39 48 52 56 62 66 68 80 96 96 59 19 355 338 323 330 155 164 167 165 165 165 158 146 143 145 148 150 153 157 161 165 168 169 170 172
346 349 347 332 308 255 160 82 61 58 57 56 59 61 65 66 63 49 11 353 357 11 37 108 144 150 155 161 157 145 142 145 144 144 149 153 157 163 166 168 169 173 172
Height
1476 1472 1469 1466 1464 1461 1458 1457 1457 1456 1456 1455 1454 1453 1453 1452 1451 1450 1450 1448 1450 1454 1457 1460 1464 1467 1469 1471 1472 1473 1474 1476 1476 1477 1477 1477 1475 1474 1474 1474 1474 1475 1477
1469 1465 1462 1459 1456 1453 1450 1448 1447 1447 1447 1447 1447 1447 1446 1446 1446 1445 1444 1444 1444 1445 1449 1452 1456 1460 1463 1465 1467 1468 1470 1471 1472 1472 1473 1474 1472 1472 1472 1472 1473 1474 1476
1461 1457 1453 1450 1447 1444 1441 1439 1437 1436 1437 1438 1438 1439 1439 1440 1440 1439 1439 1438 1439 1440 1442 1445 1449 1453 1456 1459 1461 1463 1465 1466 1468 1468 1469 1470 1470 1470 1470 1471 1472 1474 1475
1452 1447 1443 1440 1438 1435 1432 1429 1427 1426 1426 1427 1429 1430 1431 1432 1433 1433 1433 1432 1432 1434 1436 1439 1442 1446 1449 1452 1455 1457 1459 1461 1462 1463 1464 1466 1467 1467 1468 1469 1471 1473 1475
1442 1437 1433 1430 1426 1424 1422 1420 1418 1417 1416 1417 1419 1421 1423 1424 1426 1427 1428 1428 1428 1428 1431 1433 1436 1439 1442 1445 1448 1450 1453 1455 1457 1458 1459 1461 1462 1463 1465 1466 1468 1471 1475
1433 1428 1423 1419 1415 1412 1410 1409 1408 1406 1406 1407 1409 1412 1414 1417 1419 1421 1422 1423 1424 1424 1426 1429 1431 1434 1435 1438 1441 1443 1446 1448 1451 1452 1454 1455 1457 1459 1461 1463 1466 1469 1473
1424 1419 1414 1410 1405 1402 1399 1398 1397 1396 1396 1396 1398 1402 1405 1409 1412 1414 1416 1418 1419 1421 1422 1424 1426 1428 1430 1432 1434 1436 1438 1441 1444 1447 1448 1449 1452 1453 1456 1460 1463 1466 1469
1416 1410 1405 1401 1396 1392 1389 1387 1386 1386 1386 1387 1388 1392 1396 1400 1404 1407 1409 1411 1414 1416 1418 1419 1421 1422 1424 1425 1426 1428 1431 1434 1437 1440 1442 1444 1446 1449 1452 1456 1459 1463 1469
1409 1404 1398 1393 1388 1384 1380 1378 1377 1377 1377 1378 1380 1383 1387 1392 1397 1400 1403 1405 1407 1409 1411 1413 1415 1416 1417 1419 1419 1421 1424 1427 1431 1434 1436 1438 1441 1444 1447 1450 1454 1459 1465
1403 1397 1391 1386 1381 1377 1373 1370 1368 1368 1368 1370 1372 1375 1379 1384 1389 1393 1396 1398 1400 1403 1405 1407 1409 1410 1412 1412 1413 1415 1417 1421 1425 1428 1430 1433 1436 1438 1441 1445 1450 1456 1461
1397 1390 1384 1378 1373 1369 1366 1363 1361 1360 1360 1362 1365 1368 1372 1377 1381 1385 1389 1391 1394 1396 1398 1400 1403 1405 1406 1406 1407 1409 1412 1417 1420 1423 1425 1429 1432 1436 1439 1443 1448 1454 1459
1392 1385 1378 1372 1367 1363 1359 1356 1354 1353 1353 1355 1358 1361 1365 1369 1373 1377 1381 1384 1387 1389 1391 1394 1396 1399 1400 1400 1401 1403 1407 1412 1415 1418 1421 1425 1429 1434 1438 1444 1450 1457 1463
1387 1380 1373 1367 1362 1358 1355 1352 1350 1349 1349 1350 1352 1355 1358 1362 1366 1370 1373 1376 1379 1381 1384 1388 1390 1392 1394 1394 1395 1398 1402 1407 1411 1414 1418 1423 1428 1433 1439 1445 1452 1459 1465
1384 1377 1370 1365 1360 1356 1352 1350 1348 1347 1346 1347 1348 1350 1353 1356 1359 1362 1365 1368 1371 1374 1378 1382 1385 1387 1388 1389 1390 1393 1397 1402 1407 1412 1416 1422 1427 1434 1440 1446 1452 1459 1465
1383 1376 1369 1364 1359 1355 1351 1348 1346 1345 1344 1344 1345 1346 1348 1350 1353 1356 1358 1361 1365 1369 1373 1377 1379 1382 1383 1384 1385 1389 1393 1398 1404 1409 1415 1420 1427 1434 1440 1447 1453 1459 1465
1381 1375 1369 1364 1360 1356 1352 1348 1346 1344 1343 1342 1342 1343 1344 1346 1348 1351 1353 1357 1360 1365 1369 1372 1375 1377 1379 1380 1382 1385 1389 1395 1401 1408 1414 1420 1426 1433 1440 1447 1453 1459 1464
1381 1375 1370 1365 1361 1357 1353 1349 1346 1344 1342 1340 1340 1341 1342 1344 1346 1348 1351 1354 1358 1361 1365 1368 1371 1373 1375 1377 1379 1382 1386 1392 1399 1406 1413 1420 1427 1433 1440 1446 1451 1457 1463
1380 1375 1370 1366 1361 1358 1354 1351 1347 1344 1342 1341 1340 1340 1341 1343 1344 1346 1349 1353 1356 1359 1362 1365 1367 1370 1372 1374 1376 1380 1384 1391 1398 1406 1413 1420 1426 1433 1439 1445 1450 1455 1460
1378 1374 1369 1365 1361 1358 1355 1352 1349 1346 1344 1342 1341 1342 1343 1344 1345 1347 1349 1352 1354 1357 1359 1362 1364 1367 1369 1371 1374 1377 1382 1389 1397 1405 1413 1419 1426 1432 1438 1444 1449 1454 1458
1374 1371 1368 1364 1361 1358 1355 1353 1350 1348 1346 1345 1344 1345 1345 1347 1348 1349 1350 1352 1354 1356 1358 1359 1361 1364 1367 1369 1372 1376 1382 1389 1397 1405 1412 1419 1426 1432 1438 1443 1447 1451 1456
1371 1368 1366 1363 1361 1358 1356 1354 1352 1350 1349 1348 1348 1348 1348 1349 1350 1351 1352 1353 1354 1355 1357 1359 1360 1362 1365 1367 1371 1376 1382 1389 1397 1405 1413 1419 1426 1431 1437 1442 1446 1451 1455
1369 1365 1364 1362 1360 1359 1357 1355 1353 1352 1351 1350 1350 1350 1351 1351 1352 1353 1353 1354 1354 1355 1357 1359 1360 1362 1364 1368 1372 1377 1383 1391 1398 1406 1413 1419 1425 1431 1436 1441 1446 1450 1454
1368 1365 1362 1361 1360 1359 1358 1356 1355 1353 1352 1351 1351 1351 1352 1352 1353 1354 1354 1355 1355 1356 1358 1359 1361 1363 1366 1370 1375 1381 1387 1394 1400 1407 1413 1419 1425 1431 1436 1441 1446 1450 1454
1369 1365 1362 1361 1360 1360 1359 1358 1356 1355 1354 1353 1353 1353 1353 1354 1355 1356 1356 1356 1357 1358 1359 1361 1363 1365 1369 1374 1379 1385 1391 1397 1403 1409 1414 1419 1425 1431 1436 1441 1445 1449 1453
1370 1366 1363 1361 1360 1359 1359 1359 1359 1358 1357 1356 1356 1355 1356 1357 1358 1359 1359 1360 1360 1361 1362 1364 1366 1370 1374 1379 1384 1389 1395 1400 1405 1410 1415 1421 1426 1431 1436 1441 1445 1449 1452
1372 1368 1365 1362 1360 1359 1360 1360 1360 1360 1360 1360 1359 1359 1360 1361 1362 1363 1363 1364 1364 1365 1366 1369 1372 1375 1379 1384 1388 1393 1398 1402 1407 1412 1417 1422 1427 1431 1436 1440 1444 1447 1451